Tracking 29034 objects as of 25-Jun-2024
HD Live streaming from Space Station
objects crossing your sky now

WESTFORD NEEDLES

Track WESTFORD NEEDLES now!
10-day predictions
WESTFORD NEEDLES is classified as:


NORAD ID: 19109
Int'l Code: 1963-014EJ
Perigee: 3,078.6 km
Apogee: 4,170.2 km
Inclination: 87.3 °
Period: 165.8 minutes
Semi major axis: 9995 km
RCS: 0.124 m2 (medium)
Launch date: May 9, 1963
Source: United States (US)
Launch site: AIR FORCE WESTERN TEST RANGE (AFWTR)
Your satellite tracking list
Your tracking list is empty




NASA's NSSDC Master Catalog

Two Line Element Set (TLE):
1 19109U 63014EJ  24174.32415976 -.00000473  00000-0 -18569+0 0  9993
2 19109  87.2753 145.9162 0546033 147.0812 216.5313  8.68762582395354
Source of the keplerian elements: AFSPC